Regional Weather Roundup
Issued by NWS Albany, NY

Home | Current Version | Previous Version | Text Only | Print | Product List | Glossary On
Versions: 1 2 3 4 5 6 7 8 9 10 11 12 13 14 15 16 17 18 19 20 21 22 23 24 25 26 27 28 29 30 31 32 33 34 35 36 37 38 39 40 41 42 43 44 45 46 47 48 49 50
000
ASUS41 KALY 240310
RWRALY

NEW YORK STATE HOURLY WEATHER ROUNDUP
NATIONAL WEATHER SERVICE ALBANY NY
1100 PM EDT SAT MAY 23 2015

NOTE: "FAIR" INDICATES FEW OR NO CLOUDS BELOW 12,000 FEET WITH NO
SIGNIFICANT WEATHER AND/OR NO OBSTRUCTIONS TO VISIBILITY.

NYZ032-033-038>043-046>054-057>066-NYZ062>081-240400-
EAST


CITY           SKY/WX    TMP DP  RH WIND       PRES   REMARKS
ALBANY         CLEAR     46  34  62 S5        30.29S
GLENS FALLS    CLEAR     49  35  58 CALM      30.26S
POUGHKEEPSIE   CLEAR     50  36  58 CALM      30.31S
NEWBURGH       CLEAR     54  36  50 CALM      30.34R
MONTGOMERY     CLEAR     51  37  58 S3        30.32S
WHITE PLAINS   CLEAR     52  45  77 S3        30.34S
ISLIP          CLEAR     53  45  74 SW7       30.36R
NEW YORK CITY  PTCLDY    59  44  57 S9        30.35R
CENTRAL PARK   CLEAR     58  41  53 CALM      30.38R
$$

NYZ005>009-017-018-044>046-055-056-240400-
CENTRAL


CITY           SKY/WX    TMP DP  RH WIND       PRES   REMARKS
FULTON         CLEAR     52  36  54 S7        30.26F
SYRACUSE       PTCLDY    53  34  48 S6        30.26F
ROME           CLEAR     45  37  73 CALM      30.29S
ELMIRA         CLEAR     45  37  73 CALM      30.33R
BINGHAMTON     CLEAR     53  32  44 SW7       30.32R
MONTICELLO     CLEAR     45  36  70 CALM      30.35S
$$

NYZ026>034-041>043-240400-
NORTH


CITY           SKY/WX    TMP DP  RH WIND       PRES   REMARKS
WATERTOWN      CLEAR     57  27  31 SW12G20   30.22S
FORT DRUM      NOT AVBL
MASSENA        CLEAR     53  27  36 SW14      30.17S
SARANAC LAKE   CLEAR     44  25  47 SW8       30.20S
PLATTSBURGH    MOCLDY    55  24  30 VRB5      30.17F
$$

NYZ001>004-010>016-019>021-240400-
WEST


CITY           SKY/WX    TMP DP  RH WIND       PRES   REMARKS
NIAGARA FALLS  PTCLDY    53  29  39 SW10      30.28S
BUFFALO        PTCLDY    53  35  50 SW7       30.30S
DUNKIRK        PTCLDY    53  31  42 S5        30.30F
JAMESTOWN      PTCLDY    54  32  43 S3        30.34S
WELLSVILLE     CLEAR     54  30  40 W6        30.36S
ROCHESTER      CLEAR     53  24  32 SW10      30.29S
PENN YAN       CLEAR     55  33  43 SW8       30.30S
$$

             KEY
       WCI = WIND CHILL INDEX
       VSB = VISIBILITY
       HX  = HEAT INDEX
$$


USA.gov is the U.S. government's official web portal to all federal, state and local government web resources and services.